TimeMDT,TemperatureF,Dew PointF,Humidity,Sea Level PressureIn,VisibilityMPH,Wind Direction,Wind SpeedMPH,Gust SpeedMPH,PrecipitationIn,Events,Conditions,WindDirDegrees,DateUTC
12:53 AM,46.0,43.0,89,29.78,10.0,Calm,Calm,-,0.02,Rain,Light Rain,0,2013-05-28 06:53:00
1:47 AM,46.4,42.8,87,29.82,10.0,Calm,Calm,-,0.00,Rain,Light Rain,0,2013-05-28 07:47:00
1:48 AM,46.0,43.0,89,29.75,10.0,NNW,3.5,-,0.00,Rain,Light Rain,340,2013-05-28 07:48:00
1:50 AM,46.4,42.8,87,29.82,10.0,NW,6.9,-,0.00,Rain,Light Rain,310,2013-05-28 07:50:00
1:59 AM,44.6,42.8,93,29.81,10.0,NW,4.6,-,0.01,Rain,Light Rain,310,2013-05-28 07:59:00
2:08 AM,44.6,42.8,93,29.82,10.0,West,3.5,-,0.01,Rain,Light Rain,280,2013-05-28 08:08:00
2:53 AM,44.1,41.0,89,29.75,5.0,SSE,3.5,-,0.08,Rain,Light Rain,150,2013-05-28 08:53:00
3:25 AM,44.6,41.0,87,29.81,9.0,Calm,Calm,-,0.02,Rain,Light Rain,0,2013-05-28 09:25:00
3:42 AM,44.6,41.0,87,29.81,10.0,Calm,Calm,-,0.02,Rain,Light Rain,0,2013-05-28 09:42:00
3:53 AM,44.1,41.0,89,29.73,10.0,Calm,Calm,-,0.02,Rain,Light Rain,0,2013-05-28 09:53:00
4:12 AM,44.6,41.0,87,29.80,10.0,NNW,3.5,-,0.00,,Overcast,340,2013-05-28 10:12:00
4:37 AM,42.8,41.0,93,29.81,10.0,Calm,Calm,-,0.01,Rain,Light Rain,0,2013-05-28 10:37:00
4:53 AM,43.0,41.0,93,29.72,10.0,WNW,3.5,-,0.01,Rain,Light Rain,300,2013-05-28 10:53:00
5:10 AM,42.8,39.2,87,29.80,10.0,WNW,4.6,-,0.00,,Overcast,300,2013-05-28 11:10:00
5:48 AM,42.8,39.2,87,29.80,10.0,NW,3.5,-,0.00,,Overcast,310,2013-05-28 11:48:00
5:53 AM,42.1,39.0,89,29.72,10.0,NW,4.6,-,0.00,Rain,Light Rain,310,2013-05-28 11:53:00
6:53 AM,42.1,39.0,89,29.73,7.0,NW,4.6,-,0.01,Rain,Light Rain,320,2013-05-28 12:53:00
7:53 AM,41.0,39.0,93,29.73,8.0,NNW,4.6,-,0.03,Rain,Light Rain,330,2013-05-28 13:53:00
8:19 AM,42.8,39.2,87,29.80,10.0,North,4.6,-,0.00,Rain,Light Rain,10,2013-05-28 14:19:00
8:26 AM,42.8,39.2,87,29.80,10.0,NNE,5.8,-,0.01,Rain,Light Rain,20,2013-05-28 14:26:00
8:53 AM,42.1,37.9,85,29.74,7.0,NNE,5.8,-,0.02,Rain,Light Rain,20,2013-05-28 14:53:00
9:04 AM,42.8,37.4,81,29.80,10.0,NNE,4.6,-,0.00,Rain,Light Rain,30,2013-05-28 15:04:00
9:53 AM,44.1,37.9,79,29.75,10.0,North,6.9,-,0.01,Rain,Light Rain,10,2013-05-28 15:53:00
10:45 AM,46.4,39.2,76,29.80,10.0,NNE,6.9,-,0.00,,Overcast,30,2013-05-28 16:45:00
10:53 AM,48.0,39.0,71,29.73,10.0,North,6.9,-,0.00,,Mostly Cloudy,350,2013-05-28 16:53:00
11:51 AM,48.2,39.2,71,29.79,10.0,West,4.6,-,N/A,,Overcast,280,2013-05-28 17:51:00
11:53 AM,48.9,39.0,69,29.73,10.0,Variable,4.6,-,N/A,,Overcast,0,2013-05-28 17:53:00
12:53 PM,52.0,37.9,59,29.73,10.0,WNW,9.2,-,0.00,,Mostly Cloudy,290,2013-05-28 18:53:00
1:53 PM,51.1,37.9,61,29.73,10.0,West,10.4,-,N/A,,Overcast,260,2013-05-28 19:53:00
2:53 PM,52.0,39.0,61,29.73,10.0,WNW,15.0,23.0,0.00,,Overcast,290,2013-05-28 20:53:00
3:53 PM,55.0,39.0,55,29.71,10.0,NW,12.7,-,0.00,,Mostly Cloudy,310,2013-05-28 21:53:00
4:53 PM,57.0,39.0,51,29.71,10.0,NW,11.5,16.1,0.00,,Overcast,320,2013-05-28 22:53:00
5:53 PM,54.0,36.0,51,29.73,10.0,WNW,11.5,-,N/A,,Mostly Cloudy,290,2013-05-28 23:53:00
6:53 PM,52.0,37.9,59,29.75,10.0,NNW,11.5,-,N/A,,Overcast,340,2013-05-29 00:53:00
7:53 PM,51.1,37.9,61,29.76,10.0,North,8.1,-,N/A,,Partly Cloudy,350,2013-05-29 01:53:00
8:53 PM,50.0,37.9,63,29.77,10.0,NW,5.8,-,N/A,,Scattered Clouds,320,2013-05-29 02:53:00
9:53 PM,48.9,37.9,66,29.77,10.0,WNW,6.9,-,N/A,,Mostly Cloudy,300,2013-05-29 03:53:00
10:53 PM,48.0,39.9,74,29.77,10.0,NW,3.5,-,N/A,,Overcast,320,2013-05-29 04:53:00
11:53 PM,46.9,39.9,77,29.78,10.0,WNW,5.8,-,N/A,,Overcast,300,2013-05-29 05:53:00